Location: Northcutt
(34.7304°N, 84.4305°W)
Time: 18:24:30
(UTC+00:00)

Transit 2A Rocket - Pass Details

Date: 06 October 2022
Orbit: 589 x 911 km, 66.7° (Epoch: 02 December)

Event Time Altitude Azimuth Distance (km) Brightness Sun altitude
Rises 09:54:28 0° 200° (SSW) 2,865 - -21.7°
Reaches altitude 10° 09:56:44 10° 198° (SSW) 1,938 - -21.2°
Exits shadow 09:58:41 26° 193° (SSW) 1,187 5.8 -20.8°
Maximum altitude 10:01:01 71° 115° (ESE) 627 4.6 -20.3°
Drops below altitude 10° 10:05:17 10° 31° (NNE) 1,921 7.6 -19.5°
Sets 10:07:32 0° 30° (NNE) 2,837 8.5 -19.0°
